Powrót do katalogu

COSMOS 2342

AktywnyNawigacjaHEO
NORAD 24800·PAYLOAD·🇷🇺 Russia

Wystrzelony May 14, 1997 z Plesetsk Cosmodrome

Loading…

Następne Przeloty (najbliższe 24 godziny)

TLE

ŚwieżeSource: Space-Track

Epoka: Sep 13, 2026, 02:03 UTC

1 24800U 97022A   26256.08595294  .00000710  00000-0  00000+0 0  9994
2 24800  67.6244 241.7106 6464927 125.1925 313.2977  1.99579133214162

Śledź COSMOS 2342 w czasie rzeczywistym z AllMySat

Download on the App Store